Zurück zum Katalog

DELTA 1 DEB

AktivLEO
NORAD 42083·DEBRIS·🇺🇸 United States

Gestartet Dec 15, 1968 von Vandenberg Space Force Base

Loading…

Nächste Überflüge (nächste 24 Stunden)

TLE

VeraltetSource: Space-Track

Epoche: Sep 1, 2026, 09:45 UTC

1 42083U 68114K   26244.40640212 -.00000059  00000-0 -13553-4 0  9991
2 42083 101.8642 289.1594 0280579 307.0973  65.3630 13.02320949 58097

Verfolge DELTA 1 DEB in Echtzeit mit AllMySat

Download on the App Store